User: anonymous   Login
Location: downtown San Diego
(32.7310°N, 117.1990°W)
Time: 02:18:17
(UTC-08:00)
Language:

Cosmos 1269 Rocket - Orbit

View from above orbital plane
View from above orbital plane
View from above satellite
View from above satellite

Ground track
Ground track

The orbit data is extracted from the following two-line orbital elements,

1 12443U 81041B   19048.77511143 +.00000021 +00000-0 +16536-4 0  9997
2 12443 074.0548 129.7309 0003217 074.9604 285.1904 14.34710666975376
Epoch (UTC): 17 February 2019 18:36:09
Eccentricity: 0.0003217
inclination: 74.0548°
perigee height: 774 km
apogee height: 778 km
right ascension of ascending node: 129.7309°
argument of perigee: 74.9604°
revolutions per day: 14.34710666
mean anomaly at epoch: 285.1904°
orbit number at epoch: 97537

The dashed part of the orbit path shows where the satellite is in the earth's shadow,  

DLR